Location: Unspecified
(0.0000°N, 0.0000°E)
Time: 02:32:40
(UTC+00:00)

STARLINK-1063 - Pass Details

Date: 21 January 2020
Orbit: 546 x 548 km, 53.1° (Epoch: 18 January)

Event Time Altitude Azimuth Distance (km) Brightness Sun altitude
Rises 05:39:26 0° 228° (SW) 2,707 6.9 -7.4°
Reaches altitude 10° 05:41:48 10° 237° (WSW) 1,811 5.9 -6.9°
Maximum altitude 05:45:35 35° 304° (NW) 879 4.2 -6.0°
Drops below altitude 10° 05:49:21 10° 11° (N) 1,801 6.2 -5.1°
Sets 05:51:41 0° 20° (NNE) 2,689 7.1 -4.6°
